Change the Weather History Date:

Tuesday, November 5, 2013

  Actual Average (KLWV) Record (KLWV)
Temperature  
Mean Temperature 58 °F 51 °F  
Max Temperature 65 °F 61 °F 78 °F (1990)
Min Temperature 50 °F 40 °F 18 °F (1991)
Degree Days  
Heating Degree Days 8 14  
Month to date heating degree days 68  
Since 1 July heating degree days 365  
Cooling Degree Days 0 0  
Month to date cooling degree days 0  
Year to date cooling degree days 1386  
Growing Degree Days 8 (Base 50)    
Moisture  
Dew Point 48 °F    
Average Humidity 73    
Maximum Humidity 96    
Minimum Humidity 54    
Precipitation  
Precipitation 0.03 in 0.12 in 0.72 in (1988)
Month to date precipitation 0.60  
Year to date precipitation 37.12  
Sea Level Pressure  
Sea Level Pressure 30.26 in    
Wind  
Wind Speed 6 mph (SSE)    
Max Wind Speed 15 mph    
Max Gust Speed 20 mph    
Visibility 10 miles    
Events Rain    
T = Trace of Precipitation, MM = Missing Value Source: NWS Daily Summary

Daily Weather History Graph

Daily Weather History Graph

Search for Another Location

Airport or City:

Trip Planner

Search our weather history database for the weather conditions in past years. The results will help you decide how hot, cold, wet, or windy it might be!

Date:

Astronomy

Nov. 05, 2013 Rise Set
Actual Time 6:22 AM CST 4:45 PM CST
Civil Twilight 5:54 AM CST 5:13 PM CST
Nautical Twilight 5:22 AM CST 5:44 PM CST
Astronomical Twilight 4:51 AM CST 6:16 PM CST
Moon 8:36 AM CST (11/5) 6:47 PM CST (11/5)
Length of Visible Light 11h 18m
Length of Day
10h 22m
Waxing Crescent, 7% of the Moon is Illuminated
Nov 5
Waxing Crescent
Nov 9
First Quarter
Nov 17
Full
Nov 25
Last Quarter
Dec 2
New

Hourly Weather History & Observations

Time (CST) Temp. Dew Point Humidity Pressure Visibility Wind Dir Wind Speed Gust Speed Precip Events Conditions
12:15 AM 53.1 °F 46.2 °F 78% 30.30 in 10.0 mi South 3.5 mph - N/A   Overcast
12:35 AM 52.7 °F 46.6 °F 80% 30.30 in 10.0 mi SSE 3.5 mph - N/A   Overcast
12:55 AM 52.7 °F 46.8 °F 80% 30.32 in 10.0 mi Calm Calm - N/A   Overcast
1:15 AM 53.2 °F 46.9 °F 79% 30.32 in 10.0 mi South 5.8 mph - N/A Rain Light Rain
1:35 AM 52.9 °F 47.5 °F 82% 30.32 in 10.0 mi South 3.5 mph - N/A   Light Drizzle
1:55 AM 52.2 °F 48.2 °F 86% 30.32 in 10.0 mi South 4.6 mph - N/A Rain Light Rain
2:15 AM 51.6 °F 48.6 °F 89% 30.32 in 10.0 mi South 4.6 mph - 0.01 in Rain Light Rain
2:35 AM 51.3 °F 49.1 °F 92% 30.32 in 10.0 mi SSE 3.5 mph - 0.02 in Rain Light Rain
2:55 AM 51.1 °F 49.1 °F 93% 30.31 in 7.0 mi SE 3.5 mph - 0.03 in Rain Light Rain
3:15 AM 51.1 °F 49.5 °F 94% 30.31 in 10.0 mi SSE 4.6 mph - N/A Rain Light Rain
3:35 AM 50.9 °F 49.3 °F 94% 30.30 in 7.0 mi Calm Calm - N/A   Overcast
3:55 AM 50.9 °F 49.8 °F 96% 30.31 in 7.0 mi Calm Calm - N/A   Overcast
4:15 AM 51.1 °F 49.6 °F 95% 30.31 in 7.0 mi Calm Calm - N/A   Overcast
4:35 AM 51.1 °F 49.5 °F 94% 30.31 in 10.0 mi Calm Calm - N/A   Overcast
4:55 AM 51.1 °F 49.5 °F 94% 30.32 in 7.0 mi Calm Calm - N/A   Overcast
5:15 AM 51.1 °F 49.5 °F 94% 30.31 in 7.0 mi East 3.5 mph - N/A   Overcast
5:35 AM 51.1 °F 49.1 °F 93% 30.31 in 7.0 mi SE 5.8 mph - N/A   Mostly Cloudy
5:55 AM 51.3 °F 48.6 °F 90% 30.32 in 10.0 mi SSE 6.9 mph - N/A   Scattered Clouds
6:15 AM 51.1 °F 48.4 °F 90% 30.32 in 10.0 mi SSE 6.9 mph - N/A   Clear
6:35 AM 51.3 °F 48.2 °F 89% 30.32 in 10.0 mi SSE 5.8 mph - N/A   Clear
6:55 AM 51.3 °F 47.8 °F 88% 30.32 in 10.0 mi SSE 5.8 mph - N/A   Clear
7:15 AM 51.8 °F 47.7 °F 86% 30.33 in 10.0 mi SSE 4.6 mph - N/A   Scattered Clouds
7:35 AM 51.8 °F 47.8 °F 86% 30.33 in 10.0 mi SSE 6.9 mph - N/A   Scattered Clouds
7:55 AM 52.2 °F 47.8 °F 85% 30.34 in 10.0 mi SSE 5.8 mph - N/A   Scattered Clouds
8:15 AM 52.7 °F 47.5 °F 82% 30.35 in 10.0 mi South 5.8 mph - N/A   Scattered Clouds
8:35 AM 53.1 °F 47.7 °F 82% 30.36 in 10.0 mi South 5.8 mph - N/A   Scattered Clouds
8:55 AM 53.1 °F 46.8 °F 79% 30.36 in 10.0 mi South 6.9 mph - N/A   Mostly Cloudy
9:15 AM 52.9 °F 46.6 °F 79% 30.37 in 10.0 mi South 6.9 mph - N/A   Scattered Clouds
9:35 AM 53.1 °F 46.2 °F 78% 30.36 in 10.0 mi South 6.9 mph - N/A   Scattered Clouds
9:55 AM 53.1 °F 46.6 °F 79% 30.35 in 10.0 mi South 6.9 mph - N/A   Scattered Clouds
10:15 AM 53.6 °F 46.9 °F 78% 30.36 in 10.0 mi South 4.6 mph - N/A   Scattered Clouds
10:35 AM 54.7 °F 47.7 °F 77% 30.35 in 10.0 mi South 4.6 mph - N/A   Clear
10:55 AM 55.6 °F 47.8 °F 75% 30.34 in 10.0 mi SSE 4.6 mph - N/A   Clear
11:15 AM 56.7 °F 47.5 °F 71% 30.32 in 10.0 mi SSE 4.6 mph - N/A   Scattered Clouds
11:35 AM 57.9 °F 47.7 °F 69% 30.32 in 10.0 mi South 5.8 mph - N/A   Scattered Clouds
11:55 AM 59.4 °F 47.5 °F 65% 30.30 in 10.0 mi South 9.2 mph - N/A   Clear
12:15 PM 59.9 °F 47.7 °F 64% 30.29 in 10.0 mi SSE 9.2 mph - N/A   Clear
12:35 PM 60.4 °F 47.3 °F 62% 30.28 in 10.0 mi SSE 10.4 mph - N/A   Clear
12:55 PM 61.7 °F 47.5 °F 60% 30.27 in 10.0 mi SSE 9.2 mph - N/A   Clear
1:15 PM 64.4 °F 48.2 °F 56% 30.26 in 10.0 mi SSE 11.5 mph - N/A   Clear
1:35 PM 64.9 °F 48.0 °F 54% 30.25 in 10.0 mi SSE 11.5 mph - N/A   Clear
1:55 PM 64.9 °F 47.8 °F 54% 30.24 in 10.0 mi South 11.5 mph - N/A   Clear
2:15 PM 64.2 °F 47.8 °F 55% 30.24 in 10.0 mi SSE 11.5 mph - N/A   Clear
2:35 PM 64.4 °F 48.0 °F 55% 30.23 in 10.0 mi SSE 10.4 mph 16.1 mph N/A   Clear
2:55 PM 65.5 °F 48.4 °F 54% 30.22 in 10.0 mi SSE 15.0 mph 19.6 mph N/A   Clear
3:15 PM 65.5 °F 48.6 °F 54% 30.21 in 10.0 mi SSE 9.2 mph 17.3 mph N/A   Clear
3:35 PM 64.4 °F 48.4 °F 56% 30.21 in 10.0 mi SSE 10.4 mph - N/A   Clear
3:55 PM 63.1 °F 48.6 °F 59% 30.21 in 10.0 mi SSE 6.9 mph - N/A   Mostly Cloudy
4:15 PM 62.8 °F 48.6 °F 60% 30.20 in 10.0 mi SSE 6.9 mph - N/A   Overcast
4:35 PM 61.9 °F 48.4 °F 61% 30.21 in 10.0 mi SSE 8.1 mph - N/A   Overcast
4:55 PM 60.6 °F 48.4 °F 64% 30.20 in 10.0 mi SSE 6.9 mph - N/A   Mostly Cloudy
5:15 PM 60.1 °F 48.2 °F 65% 30.19 in 10.0 mi SSE 8.1 mph - N/A   Scattered Clouds
5:35 PM 59.0 °F 48.2 °F 67% 30.20 in 10.0 mi SE 8.1 mph - N/A   Scattered Clouds
5:55 PM 59.9 °F 48.6 °F 66% 30.20 in 10.0 mi SSE 6.9 mph - N/A   Mostly Cloudy
6:15 PM 59.7 °F 48.7 °F 67% 30.20 in 10.0 mi SSE 5.8 mph - N/A   Overcast
6:35 PM 59.9 °F 48.7 °F 67% 30.19 in 10.0 mi SSE 6.9 mph - N/A   Overcast
6:55 PM 60.3 °F 48.2 °F 64% 30.18 in 10.0 mi SSE 6.9 mph - N/A   Overcast
7:15 PM 60.8 °F 48.2 °F 63% 30.18 in 10.0 mi SSE 9.2 mph - N/A   Overcast
7:35 PM 60.3 °F 48.2 °F 64% 30.18 in 10.0 mi SSE 10.4 mph - N/A   Overcast
7:55 PM 60.6 °F 48.0 °F 63% 30.17 in 10.0 mi SSE 9.2 mph - N/A   Overcast
8:15 PM 60.8 °F 47.8 °F 62% 30.16 in 10.0 mi SSE 8.1 mph - N/A   Overcast
8:35 PM 60.8 °F 47.8 °F 62% 30.15 in 10.0 mi SSE 9.2 mph - N/A   Overcast
8:55 PM 60.6 °F 48.0 °F 63% 30.15 in 10.0 mi SSE 8.1 mph - N/A   Overcast
9:15 PM 60.1 °F 47.8 °F 64% 30.14 in 10.0 mi SSE 10.4 mph - N/A   Mostly Cloudy
9:35 PM 59.9 °F 48.2 °F 65% 30.14 in 10.0 mi SSE 9.2 mph - N/A   Mostly Cloudy
9:55 PM 60.3 °F 48.0 °F 64% 30.13 in 10.0 mi SSE 9.2 mph - N/A   Mostly Cloudy
10:15 PM 59.9 °F 48.2 °F 65% 30.12 in 10.0 mi SSE 8.1 mph - N/A   Mostly Cloudy
10:35 PM 59.2 °F 47.8 °F 66% 30.12 in 10.0 mi SSE 10.4 mph - N/A   Scattered Clouds
10:55 PM 61.2 °F 47.7 °F 61% 30.12 in 10.0 mi South 12.7 mph 17.3 mph N/A   Clear
11:15 PM 61.7 °F 47.7 °F 60% 30.12 in 10.0 mi South 12.7 mph 18.4 mph N/A   Scattered Clouds
11:35 PM 62.1 °F 48.2 °F 60% 30.12 in 10.0 mi South 12.7 mph 16.1 mph N/A   Mostly Cloudy
11:55 PM 61.7 °F 48.6 °F 62% 30.12 in 10.0 mi South 8.1 mph - N/A   Overcast